Tacoma, WA
on Sunday, February 3, 2013

Sunday
Previous Day Next Day
Daily Summary
 ActualAverage (KSEA)Record (KSEA)
Temperature
Mean Temperature °F 43°F  
Max Temperature 46°F 49°F 63°F (1992)
Min Temperature 32°F 37°F 8°F (1950)
Degree Days
Heating Degree Days 26 22  
Month to date heating degree days 66  
Since 1 July heating degree days 2715  
Cooling Degree Days 0 0  
Month to date cooling degree days 0  
Year to date cooling degree days 0  
Moisture
Dew Point 38°F   
Average Humidity 98    
Maximum Humidity 100    
Minimum Humidity 87    
Precipitation
Precipitation 0.02 in 0.14 in 1.29 in (1968)
Month to date precipitation 0.40  
Year to date precipitation 5.97  
Snow
Snow 0.00 in in 1.30 in (1949)
Month to date snowfall  
Since 1 July snowfall  
Snow Depth in   
Wind
Wind Speed 3 mph   
Max Wind Speed 9 mph   
Max Gust Speed mph   
Visibility 7 miles   
Events Fog , Rain   

Key: T is trace of precipitation, MM is missing value
Source: NWS Daily Summary
Time(PST)TemperatureDew PointHumidity Pressure Visibility Wind DirectionWind SpeedGust SpeedPrecipitationEvents Conditions
12:13 AM 33.8°F 33.8°F 100% 30.29 in 0.2 miles North 2.3 mph - N/A Fog Fog
12:18 AM 33.8°F 33.8°F 100% 30.30 in 0.2 miles North 2.3 mph - N/A Fog Fog
12:33 AM 35.6°F 33.8°F 93% 30.29 in 0.2 miles NNE 1.2 mph - N/A Fog Fog
12:48 AM 35.6°F 35.6°F 100% 30.29 in 0.5 miles Calm Calm - N/A Fog Fog
12:58 AM 35.4°F 35.4°F 100% 30.31 in 0.5 miles Calm Calm - N/A Fog Fog
1:03 AM 35.6°F 35.6°F 100% 30.29 in 0.2 miles Calm Calm - N/A Fog Fog
1:08 AM 35.6°F 35.6°F 100% 30.29 in 0.2 miles Calm Calm - N/A Fog Fog
1:21 AM 35.6°F 35.6°F 100% 30.29 in 0.2 miles ESE 2.3 mph - N/A Fog Fog
1:26 AM 35.6°F 35.6°F 100% 30.29 in 0.2 miles SSE 2.3 mph - N/A Fog Fog
1:36 AM 33.8°F 33.8°F 100% 30.29 in 0.5 miles SSE 3.5 mph - N/A Fog Fog
1:43 AM 33.8°F 33.8°F 100% 30.29 in 0.5 miles SSE 2.3 mph - N/A Fog Fog
1:53 AM 32.0°F 32.0°F 100% 30.29 in 0.8 miles SSE 2.3 mph - N/A   Mist
1:58 AM 33.3°F 33.3°F 100% 30.31 in 0.8 miles SE 1.2 mph - 0.00 in   Mist
2:23 AM 32.0°F 32.0°F 100% 30.28 in 0.8 miles SSE 4.6 mph - N/A   Mist
2:28 AM 32.0°F 32.0°F 100% 30.27 in 1.0 miles SSE 3.5 mph - N/A   Mist
2:33 AM 32.0°F 32.0°F 100% 30.27 in 1.2 miles Variable 3.5 mph - N/A   Overcast
2:38 AM 32.0°F 32.0°F 100% 30.28 in 2.5 miles ENE 1.2 mph - N/A   Mostly Cloudy
2:43 AM 32.0°F 32.0°F 100% 30.28 in 5.0 miles SSW 3.5 mph - N/A   Mostly Cloudy
2:48 AM 32.0°F 32.0°F 100% 30.28 in 8.0 miles SSW 2.3 mph - N/A   Mostly Cloudy
2:58 AM 32.0°F 31.8°F 99% 30.30 in 7.0 miles Calm Calm - N/A   Scattered Clouds
3:13 AM 32.0°F 32.0°F 100% 30.28 in 7.0 miles Calm Calm - N/A   Mostly Cloudy
3:58 AM 32.5°F 32.5°F 100% 30.29 in 10.0 miles South 1.2 mph - N/A   Overcast
4:33 AM 32.0°F 32.0°F 100% 30.27 in 8.0 miles SSE 4.6 mph - N/A   Scattered Clouds
4:58 AM 32.5°F 32.5°F 100% 30.30 in 10.0 miles South 3.5 mph - N/A   Mostly Cloudy
5:03 AM 32.0°F 32.0°F 100% 30.28 in 10.0 miles SSE 3.5 mph - N/A   Overcast
5:58 AM 35.6°F 35.6°F 100% 30.30 in 10.0 miles WSW 4.6 mph - N/A   Overcast
6:58 AM 36.9°F 36.9°F 100% 30.31 in 10.0 miles SE 1.2 mph - N/A   Overcast
7:58 AM 37.6°F 37.6°F 100% 30.31 in 9.0 miles East 1.2 mph - N/A   Overcast
8:18 AM 37.4°F 37.4°F 100% 30.29 in 8.0 miles Calm Calm - N/A   Overcast
8:58 AM 38.3°F 38.3°F 100% 30.32 in 10.0 miles Calm Calm - N/A   Overcast
9:58 AM 39.2°F 39.2°F 100% 30.33 in 10.0 miles South 2.3 mph - N/A   Overcast
10:28 AM 39.2°F 39.2°F 100% 30.30 in 10.0 miles SSE 4.6 mph - N/A   Overcast
10:58 AM 40.8°F 40.8°F 100% 30.32 in 10.0 miles South 3.5 mph - N/A   Overcast
11:58 AM 43.0°F 43.0°F 100% 30.31 in 10.0 miles South 4.6 mph - N/A   Overcast
12:58 PM 44.6°F 44.6°F 100% 30.30 in 10.0 miles SSW 5.8 mph - N/A   Overcast
1:58 PM 45.9°F 44.6°F 95% 30.28 in 10.0 miles SSW 9.2 mph - N/A   Overcast
2:58 PM 46.6°F 43.0°F 87% 30.27 in 10.0 miles SSW 5.8 mph - N/A   Overcast
3:58 PM 46.6°F 43.0°F 87% 30.27 in 10.0 miles SSW 4.6 mph - N/A   Overcast
4:33 PM 46.4°F 42.8°F 87% 30.26 in 10.0 miles SW 5.8 mph - N/A   Overcast
4:38 PM 46.4°F 42.8°F 87% 30.25 in 10.0 miles SW 5.8 mph - N/A   Overcast
4:43 PM 46.4°F 42.8°F 87% 30.25 in 10.0 miles SW 5.8 mph - N/A   Overcast
4:48 PM 46.4°F 42.8°F 87% 30.25 in 10.0 miles SW 5.8 mph - N/A   Overcast
4:58 PM 45.9°F 42.8°F 89% 30.27 in 10.0 miles SW 4.6 mph - N/A   Overcast
5:40 PM 44.6°F 44.6°F 100% 30.26 in 10.0 miles SSW 4.6 mph - N/A Rain Light Rain
5:55 PM 44.6°F 44.6°F 100% 30.25 in 10.0 miles SSW 5.8 mph - N/A Rain Light Rain
5:58 PM 44.6°F 44.1°F 98% 30.27 in 10.0 miles SSW 4.6 mph - 0.00 in Rain Light Rain
6:13 PM 44.6°F 44.6°F 100% 30.25 in 10.0 miles SSW 4.6 mph - N/A Rain Light Rain
6:27 PM 44.6°F 42.8°F 93% 30.25 in 10.0 miles SSE 3.5 mph - N/A   Overcast
6:35 PM 44.6°F 42.8°F 93% 30.25 in 10.0 miles South 2.3 mph - N/A Rain Light Rain
6:45 PM 42.8°F 42.8°F 100% 30.25 in 10.0 miles SSW 2.3 mph - N/A Rain Light Rain
6:58 PM 43.3°F 43.2°F 99% 30.27 in 10.0 miles SSW 3.5 mph - 0.01 in Rain Light Rain
7:33 PM 42.8°F 42.8°F 100% 30.24 in 10.0 miles SSW 4.6 mph - N/A Rain Light Rain
7:48 PM 42.8°F 42.8°F 100% 30.24 in 10.0 miles SW 4.6 mph - N/A Rain Light Rain
7:58 PM 43.7°F 43.3°F 99% 30.25 in 10.0 miles SW 4.6 mph - 0.01 in Rain Light Rain
8:02 PM 44.6°F 42.8°F 93% 30.23 in 10.0 miles SSW 4.6 mph - N/A   Overcast
8:58 PM 43.9°F 43.7°F 99% 30.25 in 10.0 miles SSW 4.6 mph - 0.00 in   Overcast
9:38 PM 44.6°F 42.8°F 93% 30.23 in 10.0 miles SSW 8.1 mph - N/A   Overcast
9:58 PM 43.7°F 43.5°F 99% 30.25 in 10.0 miles SSW 8.1 mph - N/A   Overcast
10:58 PM 43.9°F 43.7°F 99% 30.25 in 10.0 miles SSW 5.8 mph - N/A   Overcast
11:58 PM 43.3°F 43.2°F 99% 30.24 in 10.0 miles South 5.8 mph - N/A   Overcast
Moon Phase
Feb. 03 Feb. 10 Feb. 17 Feb. 25 Mar. 04
Sunrise:07:32 AM (PST) Moon Rise:01:07 AM (PST)2/3
Sunset:05:16 PM (PST) Moon Set:10:54 AM (PST)2/3

Copyright © 2014 The Weather Underground, Inc.